Location: Newark
(59.4564°N, 26.6917°E)
Time: 22:47:17
(UTC+00:00)

SR - Pass Details

Date: 30 November 2019
Orbit: 573 x 882 km, 66.7° (Epoch: 06 December)

Event Time Altitude Azimuth Distance (km) Brightness Sun altitude
Rises 16:41:42 0° 304° (NW) 3,467 ? -23.6°
Reaches altitude 10° 16:44:13 10° 308° (NW) 2,543 ? -23.9°
Maximum altitude 16:50:09 65° 30° (NNE) 969 ? -24.6°
Enters shadow 16:50:51 60° 67° (ENE) 1,008 ? -24.7°
Drops below altitude 10° 16:56:00 10° 113° (ESE) 2,512 - -25.4°
Sets 16:58:28 0° 116° (ESE) 3,421 - -25.7°
